Content
SEND FEEDBACK

Daily
Averages
Monthly
Summary
Spain

PALMA, SPAIN


Home > Europe > Spain
Elevation: 26 feet     Latitude: 39 33N     Longitude: 002 44E

WEATHER
 
SELECT A DAY
Number of Records: 309,673;   Date Range: 7/1/96 - 12/26/14
 
SHARE

PRINT THIS DATA

[ ← Previous Day ]
WEATHER ALMANAC - FEBRUARY 11, 2013
[ Next Day → ]
[ °C ]   °F
Weather ElementAverageHighLow
Temperature52.2 °F57.2 °F (2:30 am)46.4 °F (8:00 am)
Dewpoint37.4 °F51.8 °F (12:30 am)28 °F (7:00 pm)
Humidity58 %88 % (12:30 am)30 % (1:00 pm)
Barometer29.66 in29.74 in (10:30 pm)29.62 in (5:00 am)
Wind Speed14 mph26.5 mph (10:00 pm)
Wind Gust38 mph (10:00 pm)
Weather ElementAverage
Visibility6.8 mi
Wind DirectionWNW (284.7 °)

Weather ElementTotal
Precipitation---
Heating Degree Days13.2 (Base 65)
Growing Degree Days1.8 (Base 50)
Averaged from 45 records on February 11, 2013
WEATHER CONDITIONS BREAKOUT
WIND DIRECTION BREAKOUT
WEATHER BY HOUR - FEBRUARY 11, 2013
[ °C ]   °F
Local TimeTemperatureDewpointHumidityBarometerVisibilityWind DirectionWind SpeedGust SpeedPrecipitationEventsConditions
12:30 AM55.4 °F51.8 °F88 %29.71 in6.2 miWSW (240°)16.1 mph27.6 mphPartly Cloudy
2:30 AM57.2 °F50.0 °F77 %29.65 in6.2 miWSW (250°)21.9 mphPartly Cloudy
3:00 AM57.2 °F46.4 °F67 %29.65 in6.2 miWSW (250°)21.9 mphPartly Cloudy
3:30 AM57.2 °F46.4 °F67 %29.65 in6.2 miWest (260°)25.3 mphPartly Cloudy
4:00 AM51.8 °F44.6 °F76 %29.65 in6.2 miNW (320°)24.2 mphPartly Cloudy
4:30 AM50.0 °F42.8 °F76 %29.65 in6.2 miNW (310°)16.1 mph28.8 mphRainRain
5:00 AM48.2 °F42.8 °F82 %29.62 in6.2 miCalmRainLight Rain
5:30 AM48.2 °F42.8 °F82 %29.62 in6.2 miVariable1.2 mphRainLight Rain
6:00 AM48.2 °F42.8 °F82 %29.62 in6.2 miSSW (210°)3.5 mphRainLight Rain
6:30 AM48.2 °F42.8 °F82 %29.62 in6.2 miNW (320°)3.5 mphPartly Cloudy
7:00 AM48.2 °F42.8 °F82 %29.62 in6.2 miNW (320°)11.5 mphRainLight Rain
7:00 AM47.0 °F39.0 °F65 %29.63 in12.0 miNW (310°)8.1 mphRainLight Rain
7:30 AM48.2 °F42.8 °F82 %29.62 in6.2 miWNW (300°)6.9 mphScattered Clouds
8:00 AM46.4 °F41.0 °F81 %29.62 in6.2 miWest (270°)4.6 mphPartly Cloudy
8:30 AM48.2 °F41.0 °F76 %29.62 in6.2 miWest (270°)3.5 mphPartly Cloudy
9:00 AM50.0 °F41.0 °F71 %29.62 in6.2 miWest (260°)3.5 mphPartly Cloudy
9:30 AM53.6 °F37.4 °F54 %29.62 in6.2 miWNW (290°)8.1 mphPartly Cloudy
10:00 AM53.6 °F37.4 °F54 %29.62 in6.2 miWNW (300°)16.1 mphPartly Cloudy
10:30 AM53.6 °F37.4 °F54 %29.62 in6.2 miNW (310°)17.3 mphPartly Cloudy
10:50 AM53.6 °F35.6 °F51 %29.62 in6.2 miWNW (300°)18.4 mphPartly Cloudy
11:00 AM55.4 °F37.4 °F51 %29.62 in6.2 miWNW (300°)20.7 mphPartly Cloudy
11:30 AM55.4 °F35.6 °F47 %29.62 in6.2 miWNW (300°)21.9 mphPartly Cloudy
12:00 PM55.4 °F33.8 °F44 %29.65 in6.2 miWNW (300°)20.7 mph32.2 mphPartly Cloudy
1:00 PM53.0 °F31.0 °F30 %29.67 in19.0 miNW (320°)15.0 mphPartly Cloudy
1:00 PM53.6 °F35.6 °F51 %29.65 in6.2 miNW (320°)20.7 mphScattered Clouds
1:30 PM55.4 °F37.4 °F51 %29.65 in6.2 miNW (320°)21.9 mphScattered Clouds
2:00 PM53.6 °F37.4 °F54 %29.65 in6.2 miNNW (330°)18.4 mph29.9 mphMostly Cloudy
2:30 PM53.6 °F35.6 °F51 %29.65 in6.2 miNW (310°)19.6 mphMostly Cloudy
3:00 PM53.6 °F32.0 °F44 %29.65 in6.2 miNW (320°)20.7 mphScattered Clouds
3:30 PM55.4 °F33.8 °F44 %29.65 in6.2 miNW (320°)19.6 mphScattered Clouds
4:00 PM53.6 °F33.8 °F47 %29.68 in6.2 miNW (320°)16.1 mphScattered Clouds
4:30 PM53.6 °F33.8 °F47 %29.68 in6.2 miNNW (330°)13.8 mphPartly Cloudy
5:00 PM53.6 °F35.6 °F51 %29.68 in6.2 miNNW (330°)15.0 mphPartly Cloudy
5:30 PM53.6 °F32.0 °F44 %29.68 in6.2 miNNW (330°)9.2 mphPartly Cloudy
6:00 PM51.8 °F33.8 °F50 %29.71 in6.2 miNW (310°)10.4 mphPartly Cloudy
6:30 PM51.8 °F32.0 °F47 %29.71 in6.2 miWNW (300°)9.2 mphPartly Cloudy
7:00 PM50.0 °F28.0 °F30 %29.73 in16.0 miWNW (290°)8.1 mphScattered Clouds
7:00 PM51.8 °F32.0 °F47 %29.71 in6.2 miWNW (300°)9.2 mphPartly Cloudy
7:30 PM50.0 °F32.0 °F50 %29.71 in6.2 miWest (270°)11.5 mphPartly Cloudy
8:00 PM50.0 °F32.0 °F50 %29.71 in6.2 miWest (280°)11.5 mphPartly Cloudy
8:30 PM51.8 °F32.0 °F47 %29.71 in6.2 miWest (280°)13.8 mphPartly Cloudy
9:00 PM51.8 °F30.2 °F44 %29.71 in6.2 miWNW (300°)17.3 mph28.8 mphPartly Cloudy
9:30 PM53.6 °F32.0 °F44 %29.71 in6.2 miNW (310°)17.3 mphPartly Cloudy
10:00 PM51.8 °F32.0 °F47 %29.71 in6.2 miNW (320°)26.5 mph38.0 mphPartly Cloudy
10:30 PM51.8 °F32.0 °F47 %29.74 in6.2 miNW (310°)10.4 mph24.2 mphPartly Cloudy
Hourly data recorded from LEPA, located miles away from Palma, Spain







STORIES FROM OUR PARTNERS